EDT,Max TemperatureF,Mean TemperatureF,Min TemperatureF,Max Dew PointF,MeanDew PointF,Min DewpointF,Max Humidity, Mean Humidity, Min Humidity, Max Sea Level PressureIn, Mean Sea Level PressureIn, Min Sea Level PressureIn, Max VisibilityMiles, Mean VisibilityMiles, Min VisibilityMiles, Max Wind SpeedMPH, Mean Wind SpeedMPH, Max Gust SpeedMPH,PrecipitationIn, CloudCover, Events, WindDirDegrees
2013-4-1,53,40,26,40,33,12,100,75,49,29.82,29.63,29.54,10,6,0,26,11,39,0.15,7,Fog-Rain-Snow,283
2013-4-2,33,28,23,19,16,11,74,57,39,29.97,29.87,29.81,10,5,1,31,16,43,T,7,Snow,279
2013-4-3,37,30,23,18,14,10,68,52,35,30.22,30.04,29.94,10,9,1,31,19,44,T,4,Snow,284
2013-4-4,50,37,24,21,16,12,74,49,23,30.33,30.18,29.98,10,10,10,14,7,16,0.00,0,,242
2013-4-5,52,42,32,25,21,13,72,48,24,29.96,29.84,29.71,10,10,7,26,12,35,T,2,,272
2013-4-6,43,34,25,25,9,2,72,46,19,30.29,30.17,29.93,10,10,7,22,9,37,0.00,1,,301
2013-4-7,54,40,25,36,24,14,85,56,26,30.26,30.07,29.91,10,10,10,26,6,37,0.01,2,,194
2013-4-8,60,47,34,39,33,24,92,59,25,30.06,30.00,29.95,10,10,8,21,4,26,0.00,2,,308
2013-4-9,59,51,43,47,41,37,93,70,47,29.98,29.91,29.83,10,9,3,30,7,40,0.02,2,Rain,292
2013-4-10,57,50,43,50,47,41,96,82,67,29.95,29.88,29.79,10,8,2,12,2,14,0.34,8,Rain,278
2013-4-11,50,42,34,49,40,24,100,79,58,30.09,29.92,29.80,10,7,2,14,5,17,0.13,8,Rain,10
2013-4-12,35,34,33,31,30,28,89,86,82,30.07,29.92,29.77,10,6,2,17,9,28,0.52,8,Rain,74
2013-4-13,48,40,32,36,33,30,100,80,60,29.92,29.82,29.76,10,9,2,14,3,20,0.01,8,Rain,302
2013-4-14,44,36,27,33,28,22,85,65,45,30.22,30.03,29.90,10,10,9,23,7,32,T,6,,285
2013-4-15,58,42,26,32,27,23,92,64,35,30.35,30.28,30.21,10,10,10,15,5,22,0.00,1,,183
2013-4-16,61,51,41,52,42,24,93,71,49,30.31,30.17,30.03,10,8,2,21,9,28,0.22,7,Rain,212
2013-4-17,61,50,39,46,35,27,82,55,28,30.30,30.18,30.10,10,10,8,16,6,22,0.03,4,Rain,318
2013-4-18,59,47,35,47,32,26,83,57,31,30.33,30.22,30.04,10,10,9,24,9,37,0.00,5,,137
2013-4-19,69,56,43,61,54,43,93,80,66,29.99,29.78,29.54,10,7,2,23,14,39,0.57,8,Rain-Thunderstorm,196
2013-4-20,53,42,30,41,32,21,89,64,38,30.28,29.86,29.68,10,8,3,25,12,35,0.28,6,Rain,297
2013-4-21,48,38,27,20,17,13,69,47,25,30.63,30.50,30.30,10,10,10,20,7,30,0.00,0,,310
2013-4-22,54,42,29,27,20,15,70,48,26,30.66,30.58,30.51,10,10,10,18,6,26,0.00,0,,88
2013-4-23,45,38,31,36,31,25,85,75,65,30.50,30.31,30.12,10,10,10,16,8,22,0.00,6,,64
2013-4-24,71,56,40,48,40,37,92,64,35,30.09,29.89,29.72,10,10,10,20,8,26,0.00,4,,205
2013-4-25,55,44,33,52,33,20,83,56,28,30.26,30.04,29.72,10,9,2,24,10,32,0.18,5,Rain,299
2013-4-26,57,43,29,34,28,23,92,60,27,30.40,30.35,30.26,10,10,5,14,6,25,0.00,1,,283
2013-4-27,63,46,29,36,28,22,85,54,22,30.40,30.33,30.25,10,10,7,15,3,18,0.00,2,,279
2013-4-28,70,52,33,38,33,27,92,59,25,30.27,30.20,30.13,10,10,6,15,3,25,0.00,1,,138
2013-4-29,59,52,45,42,35,27,65,52,39,30.19,30.17,30.14,10,10,10,15,5,23,0.01,6,Rain,146
2013-4-30,70,58,45,42,32,25,86,54,22,30.28,30.22,30.19,10,10,10,14,3,20,0.00,3,,110